Regional Weather Roundup
Issued by NWS

Home | Current Version | Previous Version | Graphics & Text | Print | Product List | Glossary On
Versions: 1 2 3 4 5 6 7 8 9 10 11 12 13 14 15 16 17 18 19 20 21 22 23 24 25 26 27 28 29 30 31 32 33 34 35 36 37 38 39 40 41 42 43 44 45 46 47 48 49 50
000
ASUS43 KFSD 301610
RWRSD

WEATHER ROUNDUP FOR SOUTH DAKOTA
NATIONAL WEATHER SERVICE SIOUX FALLS SD
1100 AM CDT MON MAR 30 2015

NOTE: "FAIR" INDICATES FEW OR NO CLOUDS BELOW 12,000 FEET WITH NO
SIGNIFICANT WEATHER AND/OR OBSTRUCTIONS TO VISIBILITY.


SDZ001>005-009-010-012>017-301700-
NORTHWEST AND NORTH CENTRAL SOUTH DAKOTA

CITY           SKY/WX    TMP DP  RH WIND       PRES   REMARKS
BUFFALO          N/A     58  30  34 NW28G33   29.95S
FAITH            N/A     57  29  34 NW20G29   29.98S
MOBRIDGE       MOSUNNY   59  34  39 NW20      29.87S
$$

SDZ012>016-024>037-041>051-057-063-072>074-301700-
SOUTHWEST AND SOUTH CENTRAL SOUTH DAKOTA

CITY           SKY/WX    TMP DP  RH WIND       PRES   REMARKS
RAPID CTY ARPT PTSUNNY   61  28  28 NW24      30.05R
PIERRE         CLOUDY    57  30  35 NW15      29.94S
CUSTER         PTSUNNY   55  22  27 NW15G22   30.10R
ELLSWORTH AFB  PTSUNNY   60  29  30 NW20G25   30.04R
PHILIP         PTSUNNY   62  27  26 NW20      30.00S
PINE RIDGE     PTSUNNY   56  27  32 W6        30.07
SPEARFISH      FAIR      55  28  35 NW21G28   30.09R
WINNER         FAIR      68  25  19 NW20      29.97R
$$

SDZ004>011-016>023-039-040-301700-
NORTHEAST SOUTH DAKOTA

CITY           SKY/WX    TMP DP  RH WIND       PRES   REMARKS
ABERDEEN       MOSUNNY   63  32  31 W13       29.84F
WATERTOWN      MOSUNNY   60  29  30 W16       29.87F
SISSETON         N/A     61  31  32 W16       29.81F
$$

SDZ017-020-022-023-036>040-048>070-301700-
SOUTHEAST SOUTH DAKOTA

CITY           SKY/WX    TMP DP  RH WIND       PRES   REMARKS
SIOUX FALLS    PTSUNNY   58  21  24 W15G22    29.92S
HURON          MOSUNNY   59  28  30 VRB3      29.89F
CHAMBERLAIN    PTSUNNY   59  31  34 W9        29.95R
MITCHELL       MOSUNNY   61  27  27 W14       29.91F
YANKTON        MOSUNNY   61  25  25 SW22G31   29.93F
$$

ABBREVIATIONS USED IN REMARKS
   TC - TEMPERATURE IN CELSIUS
  WCI - WIND CHILL INDEX
   HX - HEAT INDEX
  VSB - VISIBILITY




USA.gov is the U.S. government's official web portal to all federal, state and local government web resources and services.